| time (UTC) | temp F | wind direction | speed MPH | gust MPH | rain 1hr in | rain 24hr in | rain mn in | humidity % | barometer mb |
| 20260506172509 | 67 | 220 | 5.0 | 14.0 | 0.00 | 0.00 | 0.00 | 72 | 1008.5 |
| 20260506172010 | 67 | 222 | 5.0 | 14.0 | 0.00 | 0.00 | 0.00 | 72 | 1008.4 |
| 20260506171509 | 67 | 229 | 6.0 | 15.0 | 0.00 | 0.00 | 0.00 | 73 | 1008.5 |
| 20260506171010 | 68 | 226 | 6.0 | 15.0 | 0.00 | 0.00 | 0.00 | 71 | 1008.4 |
| 20260506170009 | 68 | 216 | 5.0 | 16.0 | 0.00 | 0.00 | 0.00 | 73 | 1008.5 |
| 20260506165009 | 69 | 222 | 5.0 | 11.0 | 0.00 | 0.00 | 0.00 | 74 | 1008.6 |
| 20260506164510 | 68 | 220 | 5.0 | 12.0 | 0.00 | 0.00 | 0.00 | 74 | 1008.7 |
| 20260506164009 | 68 | 220 | 5.0 | 12.0 | 0.00 | 0.00 | 0.00 | 71 | 1008.7 |
| 20260506163510 | 68 | 213 | 4.0 | 11.0 | 0.00 | 0.00 | 0.00 | 71 | 1008.8 |
| 20260506163009 | 68 | 207 | 4.0 | 11.0 | 0.00 | 0.00 | 0.00 | 71 | 1009.1 |
| 20260506162510 | 68 | 208 | 4.0 | 10.0 | 0.00 | 0.00 | 0.00 | 71 | 1009.3 |
| 20260506162009 | 68 | 213 | 4.0 | 15.0 | 0.00 | 0.00 | 0.00 | 70 | 1009.4 |
| 20260506161510 | 68 | 216 | 4.0 | 15.0 | 0.00 | 0.00 | 0.00 | 69 | 1009.6 |
| 20260506161009 | 68 | 220 | 3.0 | 12.0 | 0.00 | 0.00 | 0.00 | 69 | 1009.7 |
| 20260506160510 | 68 | 220 | 3.0 | 11.0 | 0.00 | 0.00 | 0.00 | 69 | 1009.7 |
| 20260506160010 | 68 | 220 | 4.0 | 11.0 | 0.00 | 0.00 | 0.00 | 68 | 1009.8 |
| 20260506155509 | 68 | 221 | 4.0 | 11.0 | 0.00 | 0.00 | 0.00 | 67 | 1009.8 |
| 20260506155009 | 69 | 215 | 4.0 | 15.0 | 0.00 | 0.00 | 0.00 | 66 | 1009.8 |
| 20260506154509 | 69 | 216 | 5.0 | 15.0 | 0.00 | 0.00 | 0.00 | 65 | 1009.7 |
| 20260506154009 | 69 | 218 | 5.0 | 12.0 | 0.00 | 0.00 | 0.00 | 64 | 1009.6 |
| 20260506153509 | 69 | 218 | 5.0 | 12.0 | 0.00 | 0.00 | 0.00 | 63 | 1009.6 |
| 20260506153009 | 69 | 218 | 5.0 | 16.0 | 0.00 | 0.00 | 0.00 | 62 | 1009.8 |
| 20260506152510 | 69 | 217 | 5.0 | 16.0 | 0.00 | 0.00 | 0.00 | 61 | 1009.8 |
| 20260506151010 | 70 | 218 | 4.0 | 11.0 | 0.00 | 0.00 | 0.00 | 60 | 1009.6 |
| 20260506150509 | 70 | 221 | 6.0 | 13.0 | 0.00 | 0.00 | 0.00 | 61 | 1009.8 |
| 20260506150010 | 70 | 221 | 7.0 | 14.0 | 0.00 | 0.00 | 0.00 | 61 | 1009.7 |
| 20260506145009 | 69 | 222 | 5.0 | 18.0 | 0.00 | 0.00 | 0.00 | 61 | 1009.8 |
| 20260506144510 | 69 | 222 | 7.0 | 20.0 | 0.00 | 0.00 | 0.00 | 61 | 1009.9 |
| 20260506144009 | 69 | 220 | 5.0 | 20.0 | 0.00 | 0.00 | 0.00 | 60 | 1009.9 |
| 20260506143509 | 69 | 219 | 5.0 | 14.0 | 0.00 | 0.00 | 0.00 | 60 | 1009.9 |
| 20260506143009 | 69 | 217 | 7.0 | 19.0 | 0.00 | 0.00 | 0.00 | 60 | 1009.8 |
| 20260506142509 | 70 | 219 | 7.0 | 19.0 | 0.00 | 0.00 | 0.00 | 59 | 1009.8 |
| 20260506142010 | 70 | 223 | 6.0 | 14.0 | 0.00 | 0.00 | 0.00 | 60 | 1009.8 |
| 20260506141509 | 70 | 220 | 6.0 | 14.0 | 0.00 | 0.00 | 0.00 | 60 | 1009.7 |
| 20260506141010 | 70 | 223 | 6.0 | 27.0 | 0.00 | 0.00 | 0.00 | 60 | 1009.8 |
| 20260506140509 | 70 | 227 | 6.0 | 27.0 | 0.00 | 0.00 | 0.00 | 61 | 1009.7 |
| 20260506140010 | 69 | 226 | 5.0 | 15.0 | 0.00 | 0.00 | 0.00 | 61 | 1009.6 |
| 20260506135510 | 69 | 225 | 6.0 | 18.0 | 0.00 | 0.00 | 0.00 | 61 | 1009.6 |
| 20260506135009 | 69 | 226 | 6.0 | 18.0 | 0.00 | 0.00 | 0.00 | 61 | 1009.6 |
| 20260506134509 | 69 | 220 | 6.0 | 21.0 | 0.00 | 0.00 | 0.00 | 60 | 1009.6 |
| 20260506134010 | 69 | 218 | 6.0 | 21.0 | 0.00 | 0.00 | 0.00 | 60 | 1009.6 |
| 20260506133010 | 70 | 227 | 5.0 | 19.0 | 0.00 | 0.00 | 0.00 | 60 | 1009.6 |
| 20260506132509 | 70 | 225 | 6.0 | 19.0 | 0.00 | 0.00 | 0.00 | 60 | 1009.6 |
| 20260506132010 | 70 | 222 | 6.0 | 15.0 | 0.00 | 0.00 | 0.00 | 61 | 1009.7 |
| 20260506131510 | 70 | 221 | 5.0 | 21.0 | 0.00 | 0.00 | 0.00 | 60 | 1009.8 |
| 20260506130509 | 70 | 217 | 7.0 | 22.0 | 0.00 | 0.00 | 0.00 | 61 | 1009.9 |
| 20260506130010 | 70 | 219 | 5.0 | 22.0 | 0.00 | 0.00 | 0.00 | 61 | 1009.7 |
| 20260506125509 | 70 | 221 | 4.0 | 13.0 | 0.00 | 0.00 | 0.00 | 64 | 1010.0 |
| 20260506125010 | 69 | 220 | 4.0 | 11.0 | 0.00 | 0.00 | 0.00 | 64 | 1010.0 |
| 20260506124509 | 68 | 221 | 5.0 | 15.0 | 0.00 | 0.00 | 0.00 | 65 | 1010.0 |
| 20260506124010 | 68 | 218 | 6.0 | 15.0 | 0.00 | 0.00 | 0.00 | 64 | 1009.9 |
| 20260506123509 | 68 | 218 | 5.0 | 12.0 | 0.00 | 0.00 | 0.00 | 65 | 1009.9 |
| 20260506123010 | 68 | 214 | 4.0 | 12.0 | 0.00 | 0.00 | 0.00 | 66 | 1009.9 |
| 20260506122509 | 67 | 216 | 4.0 | 11.0 | 0.00 | 0.00 | 0.00 | 67 | 1009.9 |
| 20260506122010 | 67 | 219 | 3.0 | 11.0 | 0.00 | 0.00 | 0.00 | 68 | 1010.0 |
| 20260506121510 | 66 | 218 | 3.0 | 9.0 | 0.00 | 0.00 | 0.00 | 69 | 1010.1 |
| 20260506120510 | 66 | 210 | 5.0 | 11.0 | 0.00 | 0.00 | 0.00 | 70 | 1010.0 |
| 20260506120010 | 66 | 212 | 5.0 | 13.0 | 0.00 | 0.00 | 0.00 | 70 | 1010.1 |
| 20260506115509 | 66 | 204 | 4.0 | 13.0 | 0.00 | 0.00 | 0.00 | 70 | 1010.0 |
| 20260506115009 | 65 | 200 | 5.0 | 11.0 | 0.00 | 0.00 | 0.00 | 70 | 1010.2 |
| 20260506114509 | 65 | 212 | 4.0 | 14.0 | 0.00 | 0.00 | 0.00 | 70 | 1010.2 |
| 20260506114009 | 65 | 212 | 5.0 | 14.0 | 0.00 | 0.00 | 0.00 | 70 | 1010.2 |
| 20260506113510 | 65 | 214 | 6.0 | 12.0 | 0.00 | 0.00 | 0.00 | 70 | 1010.3 |
| 20260506113009 | 65 | 224 | 5.0 | 14.0 | 0.00 | 0.00 | 0.00 | 70 | 1010.2 |
| 20260506112509 | 65 | 222 | 4.0 | 14.0 | 0.00 | 0.00 | 0.00 | 71 | 1010.2 |
| 20260506112010 | 65 | 213 | 4.0 | 12.0 | 0.00 | 0.00 | 0.00 | 71 | 1010.2 |
| 20260506111509 | 65 | 214 | 4.0 | 11.0 | 0.00 | 0.00 | 0.00 | 71 | 1010.2 |
| 20260506111009 | 64 | 211 | 3.0 | 13.0 | 0.00 | 0.00 | 0.00 | 72 | 1010.3 |
| 20260506110509 | 64 | 208 | 3.0 | 13.0 | 0.00 | 0.00 | 0.00 | 73 | 1010.2 |
| 20260506110009 | 64 | 214 | 4.0 | 9.0 | 0.00 | 0.00 | 0.00 | 73 | 1010.1 |
| 20260506105510 | 64 | 213 | 4.0 | 10.0 | 0.00 | 0.00 | 0.00 | 73 | 1010.2 |
| 20260506104509 | 63 | 213 | 3.0 | 10.0 | 0.00 | 0.00 | 0.00 | 74 | 1010.0 |
| 20260506104009 | 63 | 214 | 4.0 | 11.0 | 0.00 | 0.00 | 0.00 | 75 | 1010.0 |
| 20260506103509 | 63 | 216 | 3.0 | 11.0 | 0.00 | 0.00 | 0.00 | 75 | 1010.1 |
| 20260506103009 | 63 | 208 | 3.0 | 10.0 | 0.00 | 0.00 | 0.00 | 76 | 1010.2 |
| 20260506102509 | 62 | 209 | 3.0 | 9.0 | 0.00 | 0.00 | 0.00 | 76 | 1010.1 |
| 20260506102010 | 62 | 219 | 3.0 | 10.0 | 0.00 | 0.00 | 0.00 | 76 | 1010.2 |
| 20260506101509 | 62 | 216 | 3.0 | 10.0 | 0.00 | 0.00 | 0.00 | 76 | 1010.2 |
| 20260506101010 | 62 | 207 | 3.0 | 9.0 | 0.00 | 0.00 | 0.00 | 76 | 1010.2 |
| 20260506100509 | 62 | 200 | 3.0 | 9.0 | 0.00 | 0.00 | 0.00 | 77 | 1010.1 |
| 20260506095510 | 63 | 206 | 3.0 | 10.0 | 0.00 | 0.00 | 0.00 | 77 | 1010.0 |
| 20260506095009 | 63 | 209 | 3.0 | 10.0 | 0.00 | 0.00 | 0.00 | 77 | 1010.0 |
| 20260506094509 | 63 | 226 | 3.0 | 10.0 | 0.00 | 0.00 | 0.00 | 76 | 1009.9 |
| 20260506094009 | 63 | 220 | 4.0 | 10.0 | 0.00 | 0.00 | 0.00 | 76 | 1009.9 |
| 20260506093509 | 63 | 211 | 3.0 | 8.0 | 0.00 | 0.00 | 0.00 | 76 | 1009.9 |
| 20260506093009 | 63 | 214 | 3.0 | 8.0 | 0.00 | 0.00 | 0.00 | 76 | 1009.8 |
| 20260506092509 | 63 | 213 | 3.0 | 10.0 | 0.00 | 0.00 | 0.00 | 76 | 1009.9 |
| 20260506092010 | 63 | 201 | 3.0 | 10.0 | 0.00 | 0.00 | 0.00 | 76 | 1009.9 |
| 20260506091509 | 63 | 203 | 3.0 | 10.0 | 0.00 | 0.00 | 0.00 | 76 | 1010.0 |
| 20260506091009 | 63 | 216 | 3.0 | 10.0 | 0.00 | 0.00 | 0.00 | 76 | 1010.0 |
| 20260506090509 | 63 | 214 | 3.0 | 8.0 | 0.00 | 0.00 | 0.00 | 76 | 1010.1 |
| 20260506085510 | 63 | 214 | 3.0 | 9.0 | 0.00 | 0.00 | 0.00 | 76 | 1010.2 |
| 20260506085009 | 63 | 210 | 3.0 | 8.0 | 0.00 | 0.00 | 0.00 | 76 | 1010.2 |
| 20260506084510 | 63 | 208 | 3.0 | 9.0 | 0.00 | 0.00 | 0.00 | 77 | 1010.2 |
| 20260506084009 | 63 | 214 | 3.0 | 9.0 | 0.00 | 0.00 | 0.00 | 77 | 1010.3 |
| 20260506083010 | 63 | 203 | 3.0 | 8.0 | 0.00 | 0.00 | 0.00 | 77 | 1010.3 |
| 20260506082509 | 63 | 208 | 2.0 | 8.0 | 0.00 | 0.00 | 0.00 | 77 | 1010.4 |
| 20260506082009 | 63 | 217 | 2.0 | 7.0 | 0.00 | 0.00 | 0.00 | 77 | 1010.4 |
| 20260506080509 | 63 | 226 | 3.0 | 9.0 | 0.00 | 0.00 | 0.00 | 76 | 1010.3 |
| 20260506073509 | 64 | 228 | 2.0 | 5.0 | 0.00 | 0.00 | 0.00 | 76 | 1010.1 |
| 20260506073010 | 64 | 214 | 2.0 | 8.0 | 0.00 | 0.00 | 0.00 | 76 | 1010.3 |
| 20260506072009 | 64 | 199 | 3.0 | 9.0 | 0.00 | 0.00 | 0.00 | 75 | 1010.3 |
| 20260506071510 | 64 | 199 | 3.0 | 9.0 | 0.00 | 0.00 | 0.00 | 75 | 1010.4 |
| 20260506071009 | 64 | 209 | 2.0 | 8.0 | 0.00 | 0.00 | 0.00 | 75 | 1010.5 |
| 20260506070509 | 64 | 200 | 2.0 | 8.0 | 0.00 | 0.00 | 0.00 | 75 | 1010.5 |
| 20260506062509 | 65 | 216 | 3.0 | 9.0 | 0.00 | 0.00 | 0.00 | 73 | 1010.4 |
| 20260506062009 | 65 | 200 | 3.0 | 8.0 | 0.00 | 0.00 | 0.00 | 72 | 1010.5 |
| 20260506061509 | 66 | 207 | 3.0 | 8.0 | 0.00 | 0.00 | 0.00 | 72 | 1010.4 |
| 20260506061009 | 66 | 220 | 4.0 | 12.0 | 0.00 | 0.00 | 0.00 | 72 | 1010.5 |
| 20260506060509 | 66 | 211 | 4.0 | 12.0 | 0.00 | 0.00 | 0.00 | 71 | 1010.5 |
| 20260506051009 | 67 | 218 | 5.0 | 12.0 | 0.00 | 0.00 | 0.00 | 69 | 1010.8 |
| 20260506050509 | 67 | 215 | 4.0 | 12.0 | 0.00 | 0.00 | 0.00 | 69 | 1010.7 |
| 20260506045009 | 67 | 215 | 4.0 | 11.0 | 0.00 | 0.00 | 0.00 | 69 | 1010.8 |
| 20260506044509 | 67 | 216 | 4.0 | 11.0 | 0.00 | 0.00 | 0.00 | 69 | 1010.9 |
| 20260506044009 | 67 | 211 | 3.0 | 10.0 | 0.00 | 0.00 | 0.00 | 69 | 1010.9 |
| 20260506043509 | 67 | 214 | 3.0 | 13.0 | 0.00 | 0.00 | 0.00 | 69 | 1010.9 |
| 20260506043009 | 67 | 216 | 4.0 | 13.0 | 0.00 | 0.00 | 0.00 | 68 | 1011.0 |
| 20260506042509 | 67 | 211 | 4.0 | 14.0 | 0.00 | 0.00 | 0.00 | 68 | 1010.9 |
| 20260506042009 | 67 | 210 | 4.0 | 14.0 | 0.00 | 0.00 | 0.00 | 67 | 1010.9 |
| 20260506041509 | 67 | 214 | 4.0 | 14.0 | 0.00 | 0.00 | 0.00 | 67 | 1010.9 |
| 20260506041009 | 67 | 221 | 4.0 | 13.0 | 0.00 | 0.00 | 0.00 | 67 | 1010.9 |
| 20260506040509 | 67 | 212 | 4.0 | 10.0 | 0.00 | 0.00 | 0.00 | 67 | 1010.8 |
| 20260506040010 | 67 | 205 | 5.0 | 10.0 | 0.00 | 0.00 | 0.00 | 66 | 1010.8 |
| 20260506035509 | 67 | 211 | 4.0 | 10.0 | 0.00 | 0.00 | 0.00 | 66 | 1010.8 |
| 20260506035009 | 67 | 219 | 4.0 | 15.0 | 0.00 | 0.00 | 0.00 | 66 | 1010.7 |
| 20260506034509 | 67 | 216 | 5.0 | 16.0 | 0.00 | 0.00 | 0.00 | 66 | 1010.8 |
| 20260506034009 | 67 | 212 | 5.0 | 16.0 | 0.00 | 0.00 | 0.00 | 65 | 1010.7 |
| 20260506033510 | 68 | 212 | 5.0 | 12.0 | 0.00 | 0.00 | 0.00 | 65 | 1010.8 |
| 20260506033009 | 68 | 213 | 5.0 | 11.0 | 0.00 | 0.00 | 0.00 | 65 | 1010.8 |
| 20260506032509 | 68 | 209 | 6.0 | 12.0 | 0.00 | 0.00 | 0.00 | 64 | 1010.8 |
| 20260506030509 | 68 | 215 | 5.0 | 15.0 | 0.00 | 0.00 | 0.00 | 63 | 1010.9 |
| 20260506030010 | 68 | 220 | 5.0 | 15.0 | 0.00 | 0.00 | 0.00 | 62 | 1010.7 |
| 20260506025509 | 68 | 207 | 5.0 | 15.0 | 0.00 | 0.00 | 0.00 | 62 | 1010.8 |
| 20260506025009 | 69 | 214 | 5.0 | 15.0 | 0.00 | 0.00 | 0.00 | 62 | 1010.9 |
| 20260506024009 | 69 | 211 | 6.0 | 17.0 | 0.00 | 0.00 | 0.00 | 60 | 1010.9 |
| 20260506023509 | 69 | 206 | 6.0 | 17.0 | 0.00 | 0.00 | 0.00 | 60 | 1010.8 |
| 20260506023009 | 69 | 206 | 5.0 | 15.0 | 0.00 | 0.00 | 0.00 | 60 | 1010.9 |
| 20260506022509 | 69 | 207 | 5.0 | 17.0 | 0.00 | 0.00 | 0.00 | 59 | 1010.9 |
| 20260506022009 | 69 | 212 | 6.0 | 17.0 | 0.00 | 0.00 | 0.00 | 59 | 1010.9 |
| 20260506021509 | 70 | 214 | 6.0 | 13.0 | 0.00 | 0.00 | 0.00 | 58 | 1011.0 |
| 20260506020509 | 70 | 209 | 5.0 | 14.0 | 0.00 | 0.00 | 0.00 | 57 | 1010.8 |
| 20260506015509 | 70 | 211 | 4.0 | 11.0 | 0.00 | 0.00 | 0.00 | 56 | 1010.8 |
| 20260506015009 | 70 | 210 | 4.0 | 12.0 | 0.00 | 0.00 | 0.00 | 56 | 1010.7 |
| 20260506014509 | 70 | 216 | 4.0 | 12.0 | 0.00 | 0.00 | 0.00 | 55 | 1010.6 |
| 20260506014009 | 70 | 216 | 4.0 | 11.0 | 0.00 | 0.00 | 0.00 | 55 | 1010.6 |
| 20260506013509 | 70 | 207 | 4.0 | 12.0 | 0.00 | 0.00 | 0.00 | 55 | 1010.6 |
| 20260506013010 | 71 | 203 | 4.0 | 13.0 | 0.00 | 0.00 | 0.00 | 55 | 1010.6 |
| 20260506012509 | 71 | 198 | 4.0 | 13.0 | 0.00 | 0.00 | 0.00 | 55 | 1010.5 |
| 20260506012009 | 71 | 206 | 4.0 | 13.0 | 0.00 | 0.00 | 0.00 | 55 | 1010.4 |
| 20260506010509 | 71 | 210 | 5.0 | 12.0 | 0.00 | 0.00 | 0.00 | 55 | 1010.4 |
| 20260506010009 | 71 | 201 | 5.0 | 15.0 | 0.00 | 0.00 | 0.00 | 54 | 1010.3 |
| 20260506005509 | 71 | 197 | 5.0 | 15.0 | 0.00 | 0.00 | 0.00 | 54 | 1010.2 |
| 20260506005009 | 71 | 201 | 5.0 | 12.0 | 0.00 | 0.00 | 0.00 | 54 | 1010.3 |
| 20260506004008 | 72 | 202 | 4.0 | 12.0 | 0.00 | 0.00 | 0.00 | 54 | 1010.3 |
| 20260506003509 | 72 | 208 | 4.0 | 13.0 | 0.00 | 0.00 | 0.00 | 53 | 1010.2 |
| 20260506003009 | 72 | 218 | 5.0 | 13.0 | 0.00 | 0.00 | 0.00 | 53 | 1010.1 |
| 20260506002509 | 72 | 222 | 6.0 | 15.0 | 0.00 | 0.00 | 0.00 | 53 | 1010.0 |
| 20260506002009 | 73 | 218 | 6.0 | 15.0 | 0.00 | 0.00 | 0.00 | 52 | 1010.0 |
| 20260506001509 | 73 | 216 | 6.0 | 15.0 | 0.00 | 0.00 | 0.00 | 51 | 1009.8 |
| 20260506001009 | 73 | 211 | 5.0 | 15.0 | 0.00 | 0.00 | 0.00 | 50 | 1009.9 |
| 20260506000509 | 74 | 210 | 5.0 | 15.0 | 0.00 | 0.00 | 0.00 | 49 | 1009.8 |
| 20260506000009 | 74 | 206 | 6.0 | 13.0 | 0.00 | 0.00 | 0.00 | 48 | 1009.8 |
| 20260505235509 | 74 | 207 | 5.0 | 13.0 | 0.00 | 0.00 | 0.00 | 46 | 1009.7 |
| 20260505235009 | 75 | 215 | 4.0 | 13.0 | 0.00 | 0.00 | 0.00 | 45 | 1009.7 |
| 20260505234509 | 75 | 215 | 4.0 | 12.0 | 0.00 | 0.00 | 0.00 | 44 | 1009.7 |
| 20260505233509 | 76 | 215 | 5.0 | 11.0 | 0.00 | 0.00 | 0.00 | 42 | 1009.4 |
| 20260505233009 | 77 | 219 | 4.0 | 11.0 | 0.00 | 0.00 | 0.00 | 41 | 1009.4 |
| 20260505232509 | 77 | 211 | 4.0 | 11.0 | 0.00 | 0.00 | 0.00 | 40 | 1009.2 |
| 20260505232009 | 78 | 208 | 5.0 | 13.0 | 0.00 | 0.00 | 0.00 | 38 | 1009.3 |
| 20260505231009 | 78 | 218 | 8.0 | 18.0 | 0.00 | 0.00 | 0.00 | 36 | 1009.1 |
| 20260505230509 | 78 | 213 | 6.0 | 17.0 | 0.00 | 0.00 | 0.00 | 36 | 1009.0 |
| 20260505230009 | 79 | 212 | 6.0 | 18.0 | 0.00 | 0.00 | 0.00 | 36 | 1009.1 |
| 20260505225509 | 79 | 215 | 5.0 | 18.0 | 0.00 | 0.00 | 0.00 | 36 | 1009.1 |
| 20260505225009 | 80 | 225 | 6.0 | 17.0 | 0.00 | 0.00 | 0.00 | 36 | 1009.0 |
| 20260505224509 | 80 | 222 | 7.0 | 17.0 | 0.00 | 0.00 | 0.00 | 35 | 1009.1 |
| 20260505223509 | 80 | 218 | 7.0 | 18.0 | 0.00 | 0.00 | 0.00 | 35 | 1008.9 |
| 20260505223009 | 81 | 218 | 6.0 | 17.0 | 0.00 | 0.00 | 0.00 | 35 | 1008.9 |
| 20260505222509 | 81 | 211 | 7.0 | 16.0 | 0.00 | 0.00 | 0.00 | 35 | 1009.0 |
| 20260505222009 | 81 | 215 | 7.0 | 16.0 | 0.00 | 0.00 | 0.00 | 34 | 1008.9 |
| 20260505221509 | 82 | 221 | 6.0 | 15.0 | 0.00 | 0.00 | 0.00 | 33 | 1008.7 |
| 20260505221009 | 82 | 222 | 7.0 | 17.0 | 0.00 | 0.00 | 0.00 | 33 | 1009.0 |
| 20260505220509 | 82 | 222 | 7.0 | 22.0 | 0.00 | 0.00 | 0.00 | 32 | 1008.9 |
| 20260505220009 | 82 | 223 | 7.0 | 22.0 | 0.00 | 0.00 | 0.00 | 32 | 1008.8 |
| 20260505215509 | 82 | 224 | 8.0 | 26.0 | 0.00 | 0.00 | 0.00 | 33 | 1008.8 |
| 20260505215009 | 82 | 222 | 8.0 | 26.0 | 0.00 | 0.00 | 0.00 | 31 | 1008.7 |
| 20260505214509 | 82 | 216 | 6.0 | 16.0 | 0.00 | 0.00 | 0.00 | 31 | 1008.8 |
| 20260505214009 | 83 | 217 | 7.0 | 21.0 | 0.00 | 0.00 | 0.00 | 30 | 1008.7 |
| 20260505213509 | 83 | 225 | 8.0 | 21.0 | 0.00 | 0.00 | 0.00 | 31 | 1008.6 |
| 20260505212509 | 83 | 225 | 5.0 | 16.0 | 0.00 | 0.00 | 0.00 | 29 | 1008.6 |
| 20260505212009 | 83 | 224 | 5.0 | 15.0 | 0.00 | 0.00 | 0.00 | 29 | 1008.5 |
| 20260505211009 | 83 | 221 | 7.0 | 20.0 | 0.00 | 0.00 | 0.00 | 30 | 1008.3 |
| 20260505210509 | 83 | 220 | 7.0 | 20.0 | 0.00 | 0.00 | 0.00 | 30 | 1008.3 |
| 20260505210009 | 83 | 227 | 6.0 | 14.0 | 0.00 | 0.00 | 0.00 | 29 | 1008.2 |
| 20260505205509 | 84 | 227 | 6.0 | 17.0 | 0.00 | 0.00 | 0.00 | 31 | 1008.3 |
| 20260505205009 | 84 | 215 | 7.0 | 19.0 | 0.00 | 0.00 | 0.00 | 30 | 1008.2 |
| 20260505204509 | 84 | 211 | 6.0 | 19.0 | 0.00 | 0.00 | 0.00 | 30 | 1008.2 |
| 20260505204009 | 84 | 217 | 6.0 | 16.0 | 0.00 | 0.00 | 0.00 | 30 | 1008.2 |
| 20260505203508 | 84 | 215 | 7.0 | 19.0 | 0.00 | 0.00 | 0.00 | 30 | 1008.3 |
| 20260505203010 | 84 | 216 | 7.0 | 19.0 | 0.00 | 0.00 | 0.00 | 30 | 1008.2 |
| 20260505202509 | 83 | 219 | 7.0 | 16.0 | 0.00 | 0.00 | 0.00 | 30 | 1008.3 |
| 20260505202009 | 83 | 217 | 8.0 | 21.0 | 0.00 | 0.00 | 0.00 | 31 | 1008.3 |
| 20260505201509 | 84 | 216 | 7.0 | 21.0 | 0.00 | 0.00 | 0.00 | 32 | 1008.1 |
| 20260505201009 | 84 | 223 | 7.0 | 23.0 | 0.00 | 0.00 | 0.00 | 31 | 1008.5 |
| 20260505200510 | 84 | 221 | 9.0 | 23.0 | 0.00 | 0.00 | 0.00 | 31 | 1008.4 |
| 20260505195508 | 84 | 224 | 9.0 | 23.0 | 0.00 | 0.00 | 0.00 | 31 | 1008.3 |
| 20260505195009 | 84 | 221 | 6.0 | 23.0 | 0.00 | 0.00 | 0.00 | 32 | 1008.5 |
| 20260505194510 | 84 | 223 | 6.0 | 15.0 | 0.00 | 0.00 | 0.00 | 31 | 1008.6 |
| 20260505193509 | 84 | 228 | 8.0 | 21.0 | 0.00 | 0.00 | 0.00 | 33 | 1008.7 |
| 20260505192509 | 84 | 226 | 7.0 | 19.0 | 0.00 | 0.00 | 0.00 | 30 | 1008.8 |
| 20260505191509 | 84 | 219 | 9.0 | 23.0 | 0.00 | 0.00 | 0.00 | 32 | 1008.9 |
| 20260505191009 | 84 | 214 | 8.0 | 23.0 | 0.00 | 0.00 | 0.00 | 32 | 1008.9 |
| 20260505190509 | 84 | 219 | 7.0 | 17.0 | 0.00 | 0.00 | 0.00 | 32 | 1009.0 |
| 20260505190009 | 84 | 217 | 7.0 | 16.0 | 0.00 | 0.00 | 0.00 | 32 | 1009.0 |
| 20260505185509 | 84 | 219 | 6.0 | 13.0 | 0.00 | 0.00 | 0.00 | 32 | 1009.2 |
| 20260505185009 | 84 | 230 | 6.0 | 20.0 | 0.00 | 0.00 | 0.00 | 32 | 1009.2 |
| 20260505184509 | 84 | 225 | 6.0 | 20.0 | 0.00 | 0.00 | 0.00 | 31 | 1009.1 |
| 20260505183009 | 84 | 216 | 7.0 | 16.0 | 0.00 | 0.00 | 0.00 | 33 | 1009.4 |
| 20260505182509 | 84 | 219 | 5.0 | 16.0 | 0.00 | 0.00 | 0.00 | 33 | 1009.5 |
| 20260505182008 | 83 | 215 | 6.0 | 19.0 | 0.00 | 0.00 | 0.00 | 34 | 1009.5 |
| 20260505181509 | 83 | 217 | 8.0 | 22.0 | 0.00 | 0.00 | 0.00 | 35 | 1009.6 |
| 20260505181009 | 83 | 218 | 9.0 | 22.0 | 0.00 | 0.00 | 0.00 | 32 | 1009.7 |
| 20260505180509 | 83 | 213 | 7.0 | 18.0 | 0.00 | 0.00 | 0.00 | 33 | 1009.7 |
| 20260505180009 | 83 | 224 | 4.0 | 18.0 | 0.00 | 0.00 | 0.00 | 33 | 1009.8 |
| 20260505175009 | 82 | 228 | 7.0 | 18.0 | 0.00 | 0.00 | 0.00 | 35 | 1009.9 |
| 20260505173509 | 82 | 219 | 6.0 | 15.0 | 0.00 | 0.00 | 0.00 | 38 | 1010.0 |
| 20260505173009 | 82 | 214 | 7.0 | 14.0 | 0.00 | 0.00 | 0.00 | 35 | 1010.1 |